Chatham, MA

9:24 AM EDT on October 17, 2017 (GMT -0400)
Chatham Municipal

Weather History for KCQX - March, 2013

Change the Weather History Date:

Monday, March 4, 2013

  Actual Average Record
Temperature  
Mean Temperature 37 °F -  
Max Temperature 41 °F 40 °F 52 °F (1991)
Min Temperature 33 °F 27 °F 14 °F (2014)
Degree Days  
Heating Degree Days 28    
Moisture  
Dew Point 27 °F    
Average Humidity 74    
Maximum Humidity 92    
Minimum Humidity 47    
Precipitation  
Precipitation 0.00 in - - ()
Sea Level Pressure  
Sea Level Pressure 29.61 in    
Wind  
Wind Speed 9 mph (NW)    
Max Wind Speed 15 mph    
Max Gust Speed 26 mph    
Visibility 9 miles    
Events Snow    
Averages and records for this station are not official NWS values.
T = Trace of Precipitation, MM = Missing Value Source: NWS Daily Summary

Daily Weather History Graph

Daily Weather History Graph

Search for Another Location

Airport or City:

Trip Planner

Search our weather history database for the weather conditions in past years. The results will help you decide how hot, cold, wet, or windy it might be!

Date:

Astronomy

Mar. 04, 2013 Rise Set
Actual Time 6:09 AM EST 5:34 PM EST
Civil Twilight 5:41 AM EST 6:02 PM EST
Nautical Twilight 5:09 AM EST 6:34 PM EST
Astronomical Twilight 4:37 AM EST 7:06 PM EST
Moon 12:18 AM EST (3/4) 10:09 AM EST (3/4)
Length of Visible Light 12h 20m
Length of Day
11h 24m
Waning Gibbous, 52% of the Moon is Illuminated
Mar 4
Waning Gibbous
Mar 4
Last Quarter
Mar 11
New
Mar 19
First Quarter
Mar 27
Full

Hourly Weather History & Observations

Time (EST) Temp. Windchill Dew Point Humidity Pressure Visibility Wind Dir Wind Speed Gust Speed Precip Events Conditions
12:52 AM 35.1 °F 30.1 °F 30.9 °F 85% 29.59 in 10.0 mi Variable 5.8 mph - N/A   Overcast
1:14 AM 33.8 °F 27.0 °F 30.2 °F 87% 29.58 in 10.0 mi NW 8.1 mph - 0.00 in   Overcast
1:52 AM 34.0 °F 29.8 °F 30.9 °F 89% 29.59 in 10.0 mi NW 4.6 mph - 0.00 in   Overcast
2:36 AM 33.8 °F 28.6 °F 30.2 °F 87% 29.58 in 8.0 mi West 5.8 mph - 0.00 in   Overcast
2:52 AM 33.1 °F 26.9 °F 30.9 °F 92% 29.58 in 10.0 mi Variable 6.9 mph - 0.00 in   Overcast
3:43 AM 33.8 °F 30.8 °F 30.2 °F 87% 29.58 in 10.0 mi WNW 3.5 mph - N/A   Overcast
3:52 AM 34.0 °F 28.0 °F 30.0 °F 85% 29.59 in 10.0 mi Variable 6.9 mph - N/A   Overcast
4:14 AM 33.8 °F 26.4 °F 28.4 °F 81% 29.58 in 10.0 mi NW 9.2 mph - N/A   Overcast
4:52 AM 34.0 °F 28.8 °F 27.0 °F 75% 29.60 in 10.0 mi WNW 5.8 mph - N/A   Overcast
6:52 AM 33.1 °F 24.9 °F 25.0 °F 72% 29.61 in 10.0 mi WNW 10.4 mph 18.4 mph N/A   Partly Cloudy
7:52 AM 34.0 °F 26.0 °F 24.1 °F 67% 29.62 in 10.0 mi WNW 10.4 mph 20.7 mph N/A   Clear
8:52 AM 33.1 °F 23.0 °F 23.0 °F 66% 29.60 in 10.0 mi WNW 15.0 mph 26.5 mph N/A   Mostly Cloudy
9:52 AM 35.1 °F 25.9 °F 23.0 °F 61% 29.60 in 10.0 mi NW 13.8 mph 26.5 mph N/A   Clear
10:52 AM 37.0 °F 29.3 °F 21.9 °F 54% 29.60 in 10.0 mi WNW 11.5 mph 25.3 mph N/A   Partly Cloudy
11:52 AM 39.0 °F 31.4 °F 23.0 °F 53% 29.59 in 10.0 mi WNW 12.7 mph 23.0 mph N/A   Partly Cloudy
12:52 PM 39.9 °F 31.8 °F 23.0 °F 51% 29.57 in 10.0 mi NW 15.0 mph 23.0 mph N/A   Partly Cloudy
1:52 PM 39.0 °F 32.8 °F 21.0 °F 49% 29.57 in 10.0 mi WNW 9.2 mph 19.6 mph N/A   Mostly Cloudy
2:52 PM 41.0 °F 34.7 °F 21.9 °F 47% 29.57 in 10.0 mi NW 10.4 mph 20.7 mph N/A   Partly Cloudy
3:52 PM 37.9 °F 32.1 °F 25.0 °F 60% 29.58 in 10.0 mi NW 8.1 mph 18.4 mph N/A   Overcast
4:52 PM 37.9 °F 33.5 °F 24.1 °F 57% 29.59 in 10.0 mi Variable 5.8 mph - N/A   Overcast
5:52 PM 37.0 °F 29.3 °F 27.0 °F 67% 29.61 in 10.0 mi NW 11.5 mph 21.9 mph N/A   Overcast
6:52 PM 35.1 °F 27.9 °F 28.9 °F 78% 29.64 in 7.0 mi NW 9.2 mph 18.4 mph 0.00 in Snow Light Snow
7:03 PM 35.6 °F 29.2 °F 28.4 °F 75% 29.63 in 7.0 mi NW 8.1 mph 19.6 mph 0.00 in Snow Light Snow
7:11 PM 33.8 °F 24.8 °F 30.2 °F 87% 29.64 in 2.5 mi NW 12.7 mph 26.5 mph 0.00 in Snow Light Snow
7:15 PM 33.8 °F 24.8 °F 30.2 °F 87% 29.64 in 3.0 mi NW 12.7 mph 26.5 mph 0.00 in Snow Light Snow
7:28 PM 33.8 °F 25.8 °F 30.2 °F 87% 29.64 in 4.0 mi NW 10.4 mph 19.6 mph 0.00 in Snow Light Snow
7:52 PM 34.0 °F 25.0 °F 30.0 °F 85% 29.66 in 6.0 mi NW 12.7 mph 26.5 mph 0.00 in Snow Light Snow
8:52 PM 33.1 °F 23.9 °F 28.9 °F 85% 29.67 in 5.0 mi NW 12.7 mph 24.2 mph 0.00 in Snow Light Snow
9:52 PM 34.0 °F 25.5 °F 28.0 °F 79% 29.67 in 10.0 mi NW 11.5 mph 24.2 mph 0.00 in   Overcast
10:52 PM 34.0 °F 26.0 °F 28.0 °F 79% 29.68 in 10.0 mi NW 10.4 mph 20.7 mph N/A   Mostly Cloudy
11:52 PM 35.1 °F 25.9 °F 26.1 °F 70% 29.69 in 10.0 mi NW 13.8 mph 21.9 mph N/A   Overcast